User: anonymous   Login
Location: Unspecified
(0.0000°N, 0.0000°E)
Time: 19:49:13
(UTC+00:00)
Language:

HO-68 - Orbit

View from above orbital plane
View from above orbital plane
View from above satellite
View from above satellite

Ground track
Ground track

The orbit data is extracted from the following two-line orbital elements,

1 36122U 09072B   17021.49787804 -.00000022  00000-0  52863-4 0  9993
2 36122 100.1178  54.2502 0007228 209.2984 150.7726 13.16337798341324
Epoch (UTC): 21 January 2017 11:56:56
Eccentricity: 0.0007228
inclination: 100.1178°
perigee height: 1193 km
apogee height: 1204 km
right ascension of ascending node: 54.2502°
argument of perigee: 209.2984°
revolutions per day: 13.16337798
mean anomaly at epoch: 150.7726°
orbit number at epoch: 34132

The dashed part of the orbit path shows where the satellite is in the earth's shadow,  

DLR